GEFSSE_500_meanwind_204.txt.gz
Wind_Speed
3 2 2 2 2 3 3 3 3 4 4 4 4 4 4 4 4 3 3 3 3 2 1 1 0 0 1 1 2 2 3 3 3 3 2 2 3 3 3 4 4 3 4
3 2 2 2 2 3 3 3 3 3 4 4 5 4 4 4 4 3 3 3 3 2 2 1 1 1 1 1 2 3 3 4 4 4 3 4 4 4 4 3 3 4 4
2 2 1 1 1 2 2 3 3 3 4 4 5 5 5 4 4 4 4 4 3 2 2 2 1 1 2 2 2 3 4 4 4 4 4 4 4 4 4 4 4 4 5
2 2 1 0 1 1 1 2 3 3 4 4 5 5 5 5 5 4 4 4 4 3 2 2 2 2 2 2 3 3 4 4 4 5 5 5 5 5 5 5 5 5 6
3 3 2 1 0 1 2 2 3 3 4 4 4 4 5 5 5 5 5 4 4 4 3 3 3 3 3 3 3 4 4 5 5 5 5 5 5 5 5 5 6 6 6
4 3 2 2 1 2 2 2 2 3 4 4 4 4 5 5 5 5 5 5 5 4 4 4 3 3 3 3 3 4 4 5 5 5 4 5 5 5 5 5 6 6 6
4 3 3 2 2 2 2 2 3 3 4 4 4 4 5 5 5 5 5 5 5 5 5 5 4 3 3 3 3 3 3 4 4 5 5 5 5 5 5 5 6 6 7
5 4 4 4 3 2 2 3 3 3 4 4 4 4 5 5 6 6 6 6 6 5 5 4 4 4 3 3 3 3 3 4 4 4 4 4 5 5 5 5 6 6 7
6 5 4 4 3 3 3 3 3 3 4 4 4 4 5 5 6 6 6 6 6 5 5 4 4 3 3 3 3 3 3 4 4 4 5 5 5 5 5 6 6 6 7
7 7 6 5 4 4 4 3 4 4 4 4 4 4 5 5 6 6 6 6 6 5 5 5 4 4 3 3 3 3 3 3 4 4 5 5 5 5 6 6 6 6 6
8 8 7 5 4 4 4 4 4 4 4 4 4 4 5 6 6 6 6 6 6 6 5 5 4 4 3 3 4 4 4 3 4 4 5 5 6 6 6 7 7 7 7
8 8 7 6 5 5 5 4 4 4 4 4 5 5 5 6 7 7 7 6 6 6 5 5 4 4 4 3 4 4 4 4 4 4 5 6 6 7 7 7 8 9 9
7 8 7 7 6 6 5 5 5 5 4 4 5 6 6 6 7 7 7 7 7 6 5 5 4 4 3 3 3 3 4 4 4 5 6 6 7 8 8 8 9 9 10
7 8 8 7 7 6 6 5 5 5 5 5 5 6 6 6 7 7 7 7 7 6 6 5 5 4 4 4 3 3 4 4 4 5 6 7 7 8 8 9 9 10 10
7 7 8 7 7 6 6 5 5 5 5 5 5 6 6 7 7 7 7 7 6 6 5 5 5 5 5 4 4 4 3 4 5 5 6 7 8 8 9 9 9 10 10
7 7 7 7 7 7 7 6 6 6 6 6 6 6 6 6 7 7 7 7 6 6 6 6 5 6 5 5 5 5 5 5 5 6 7 8 8 8 8 9 9 10 10
9 9 9 8 9 8 8 7 6 6 6 6 7 7 6 6 6 6 6 7 6 6 6 6 5 6 6 5 5 5 5 6 6 7 8 8 8 8 8 9 9 10 10
11 10 10 10 9 9 8 8 7 7 7 7 7 7 7 7 7 7 7 7 7 6 6 6 6 6 6 6 6 6 6 6 7 7 8 8 8 8 8 8 9 10 10
12 11 11 10 9 8 9 8 8 7 7 7 8 7 7 7 7 7 7 7 7 7 7 6 6 6 6 6 6 6 7 7 7 8 8 8 9 9 9 9 9 10 10
11 11 10 10 10 10 9 8 8 8 7 8 8 7 7 7 7 7 7 7 7 7 7 6 6 6 6 7 7 7 8 8 8 9 9 9 9 9 9 9 10 10 11
10 10 10 10 10 10 10 9 8 8 8 8 8 8 8 8 7 7 7 7 7 7 7 7 7 7 7 7 8 8 8 8 9 9 10 9 9 9 10 10 10 11 11
10 10 10 10 10 10 10 10 9 9 9 8 8 8 8 8 7 8 8 7 8 8 8 8 8 8 8 8 8 8 9 9 10 10 10 9 9 9 10 10 11 11 11
11 11 11 11 11 11 11 11 10 10 9 9 9 9 8 8 8 8 8 8 8 8 8 8 8 8 9 9 9 9 9 10 10 10 10 10 10 10 10 10 11 11 12
12 12 12 11 11 11 12 11 11 10 9 9 9 9 9 8 8 8 9 9 9 9 9 9 9 9 9 9 10 10 10 10 11 10 10 10 10 10 11 11 12 12 12
13 13 12 12 12 11 11 10 10 10 9 9 9 9 9 9 9 9 10 10 10 10 10 10 10 10 10 10 10 11 11 11 11 11 12 12 12 12 12 12 12 13 13
13 13 13 13 12 11 11 10 10 10 9 9 9 10 10 10 10 10 11 11 11 11 11 11 11 11 11 11 11 12 12 12 12 13 13 13 13 13 13 13 13 13 14

GEFSSE_500_meanwind_210.txt.gz
Wind_Speed
3 2 2 3 3 2 3 3 3 3 3 3 3 3 3 3 2 2 2 3 2 2 1 0 1 1 1 1 1 1 2 2 3 3 3 3 3 3 4 4 5 5 6
2 2 1 2 2 2 2 2 2 1 2 3 3 3 3 3 3 3 2 3 3 2 1 1 1 1 1 1 2 2 2 2 2 3 3 3 3 4 4 4 5 5 6
2 1 1 0 1 1 1 1 1 1 1 2 3 3 3 3 3 3 2 3 3 2 1 1 1 1 1 2 2 2 2 3 3 3 3 4 4 4 4 5 5 6 6
2 1 0 0 0 1 1 1 1 2 1 2 3 3 3 3 2 2 2 2 2 2 2 2 2 2 2 2 2 2 2 3 3 3 3 4 4 4 5 5 5 5 6
2 1 1 1 0 0 1 1 2 2 2 2 2 3 3 3 2 2 2 2 2 2 2 2 3 3 3 3 3 3 3 3 3 4 4 4 4 4 5 6 5 5 6
2 2 2 1 1 0 1 2 2 2 2 2 2 3 3 3 3 3 2 3 3 3 3 3 3 3 3 3 3 3 3 3 3 4 4 4 4 4 5 5 6 6 6
3 3 2 3 2 2 2 1 2 3 3 3 3 3 3 3 3 3 3 3 3 4 3 3 3 4 4 3 3 4 4 4 3 3 4 4 4 3 4 4 5 6 7
4 3 3 3 3 2 2 2 2 3 3 3 3 3 3 3 4 4 4 4 4 4 4 4 4 4 4 4 4 4 5 4 4 4 4 4 4 4 4 4 5 6 6
4 4 4 4 3 3 2 2 3 3 3 3 4 3 3 3 4 4 4 5 5 5 4 4 4 4 4 5 5 4 4 4 5 4 5 5 5 5 5 4 5 6 6
5 5 5 5 5 5 5 4 3 3 4 4 4 4 4 4 4 5 5 5 5 5 4 4 4 4 4 5 5 4 4 4 4 5 5 5 5 5 5 5 5 6 7
6 6 6 6 5 5 5 4 4 4 4 4 4 4 5 5 5 5 5 5 5 5 5 4 5 5 4 4 4 4 4 4 5 5 5 5 6 6 6 6 6 6 7
6 6 6 7 7 5 4 5 5 4 4 4 5 5 6 6 6 5 5 4 5 5 5 5 4 4 4 4 4 4 4 5 5 5 6 6 6 6 7 6 6 7 8
6 6 6 6 7 6 5 5 6 5 4 4 5 6 6 6 6 5 5 5 5 5 5 5 4 4 5 4 4 4 5 5 5 5 6 6 7 7 7 7 8 8 8
6 6 6 6 6 6 6 6 5 5 5 5 5 6 6 6 6 6 5 5 5 5 5 5 5 4 5 4 5 5 5 6 6 5 6 6 6 7 6 7 7 8 9
8 7 6 5 5 6 6 6 5 5 6 5 6 6 6 6 6 6 6 6 5 5 5 5 5 5 5 5 5 5 6 6 6 7 7 7 6 7 7 7 7 8 9
9 8 7 6 6 6 7 6 6 6 6 6 6 6 6 6 6 5 6 5 5 5 5 5 5 5 5 5 6 6 6 6 7 7 7 6 7 7 8 8 8 8 8
8 7 6 6 7 7 7 7 7 7 7 7 7 7 6 6 6 6 5 5 5 6 5 6 6 6 6 6 6 6 6 7 7 7 7 7 7 7 7 8 8 8 8
8 8 8 7 8 7 7 7 8 8 8 8 8 7 7 6 6 6 5 6 6 6 5 6 6 6 6 6 7 6 6 6 6 7 7 7 8 7 8 8 8 7 8
8 8 8 8 8 7 7 8 8 9 8 8 8 8 7 6 6 6 5 6 6 6 6 6 6 6 6 6 6 6 6 6 6 7 7 8 9 8 8 8 8 8 8
9 8 8 8 8 8 8 8 8 9 9 9 8 8 7 7 6 6 6 6 6 6 6 6 6 6 6 6 6 6 7 7 7 7 7 7 8 8 8 9 9 9 8
9 9 8 8 8 9 8 8 9 9 10 9 9 8 7 7 7 7 7 6 6 6 6 6 6 6 6 6 7 7 7 7 8 8 8 8 8 8 9 9 9 9 8
10 9 9 9 9 9 9 9 9 9 9 9 9 9 8 8 7 8 8 7 6 7 7 7 7 7 7 7 7 7 8 9 8 8 8 8 9 9 9 9 10 10 10
10 10 10 10 10 10 10 10 9 9 9 10 10 10 9 9 8 8 8 8 7 7 7 7 8 8 8 8 8 8 8 9 9 9 8 8 9 9 10 10 11 10 11
10 10 11 11 11 11 10 10 9 10 10 10 10 10 9 9 9 9 9 9 8 7 7 8 8 8 9 9 9 9 9 9 8 8 9 9 10 10 11 11 11 11 11
10 11 11 11 11 11 11 10 10 10 10 10 10 9 9 9 9 10 10 9 8 8 8 8 8 9 9 10 10 9 9 9 9 10 10 10 11 11 11 11 11 12 12
10 10 10 10 11 12 11 11 11 11 10 10 10 10 10 10 10 10 10 10 10 9 10 10 10 10 10 10 10 10 10 10 10 11 11 11 11 11 12 12 12 12 12

GEFSSE_500_meanwind_216.txt.gz
Wind_Speed
1 1 2 3 4 4 5 5 5 5 5 5 6 5 5 5 5 5 4 4 4 3 3 3 2 1 1 1 1 1 2 2 2 2 2 3 3 3 3 4 5 6 7
1 2 2 3 3 4 4 4 5 5 5 5 5 6 5 5 5 4 4 4 4 3 3 3 2 1 1 1 1 2 2 2 2 2 2 3 3 3 3 4 5 6 7
1 1 2 2 2 3 3 4 5 5 5 5 5 5 5 5 5 5 5 5 4 3 3 3 2 2 1 2 2 2 2 2 2 2 2 3 4 4 4 4 5 6 7
1 1 2 2 2 2 3 3 4 5 5 5 5 5 5 4 4 4 5 5 4 3 3 3 2 3 2 2 2 2 2 2 3 3 3 3 4 4 4 5 5 6 7
1 2 2 2 2 2 2 3 3 4 4 4 4 4 5 4 4 4 4 4 4 4 4 3 3 3 3 3 3 3 3 3 3 3 3 4 4 4 4 5 4 5 6
2 2 2 2 3 2 2 3 3 3 4 4 4 4 4 4 4 4 4 4 4 4 4 4 5 4 4 3 3 4 4 4 4 4 4 4 4 4 4 4 4 4 5
2 3 3 3 3 3 3 3 3 3 3 4 4 4 4 3 4 4 4 4 5 5 5 5 5 5 4 4 4 4 4 5 5 5 5 4 5 5 5 5 5 5 5
3 3 3 3 3 4 4 4 4 4 4 4 4 4 4 4 4 4 4 5 5 6 6 6 5 5 5 4 4 5 5 5 5 5 5 5 5 5 5 6 6 7 6
4 4 4 4 4 4 5 5 5 5 4 4 4 4 4 5 5 5 5 5 6 6 6 6 5 5 5 5 5 5 5 5 5 6 6 5 5 5 5 5 6 7 7
5 5 5 6 5 5 5 5 6 5 4 4 5 5 5 5 5 5 5 6 6 6 6 6 6 5 5 5 5 5 6 5 6 6 5 5 6 6 5 5 6 7 7
6 6 6 6 6 6 6 6 6 5 4 5 5 6 5 5 6 6 6 6 6 6 6 6 6 6 5 5 5 6 6 6 6 6 5 5 6 7 7 7 7 7 8
6 6 6 6 6 7 7 6 7 6 5 6 6 6 6 6 6 6 6 6 6 7 6 6 6 5 5 5 6 6 6 5 6 6 6 6 6 7 7 7 8 8 8
7 7 7 7 6 7 7 8 7 6 6 6 6 6 6 6 6 5 6 6 6 7 7 6 6 5 5 5 6 6 6 6 6 7 7 7 7 7 8 8 8 9 9
9 8 8 8 7 7 7 7 6 6 7 7 6 6 6 6 6 5 6 6 6 7 6 6 6 6 5 6 6 6 6 6 6 6 7 7 7 7 8 8 8 9 10
9 9 8 9 8 8 6 6 7 6 6 6 7 7 6 6 6 6 6 6 6 6 6 6 7 7 6 6 7 6 7 7 7 7 7 7 7 7 8 8 9 9 10
10 10 10 10 9 8 7 6 6 7 7 7 7 7 7 7 7 7 7 6 6 6 6 7 7 7 7 7 8 7 7 8 8 8 8 8 8 7 7 8 8 9 10
11 11 11 10 9 8 8 7 7 8 7 8 8 8 8 8 7 7 7 7 7 7 7 7 7 7 7 8 8 8 8 9 9 9 8 8 8 8 8 8 9 9 10
11 10 10 10 9 8 8 8 8 8 8 9 9 8 8 8 8 7 7 7 7 6 6 7 7 6 7 7 7 8 8 9 9 9 9 8 8 8 9 9 9 10 10
10 10 10 9 9 9 9 8 8 8 9 9 9 9 8 8 8 8 7 7 7 7 7 7 6 6 7 7 7 7 8 8 9 8 8 8 8 9 9 9 10 10 10
10 10 9 9 9 9 9 9 9 9 9 9 9 9 9 8 8 7 7 8 8 7 7 7 7 7 7 7 7 7 7 8 8 8 8 8 9 9 9 9 10 10 10
10 10 10 10 9 9 9 9 9 9 9 9 9 9 9 9 8 7 7 8 7 8 7 7 7 7 7 8 8 8 8 8 8 8 8 9 9 9 10 10 10 9 10
10 10 9 9 9 10 10 10 9 9 9 9 9 9 9 9 9 8 8 8 8 8 8 8 8 8 8 8 8 8 8 8 9 8 9 9 10 10 10 10 10 10 10
10 10 10 10 10 10 10 10 9 9 9 9 9 9 9 9 9 8 8 8 8 9 9 9 9 8 8 8 8 9 9 9 9 9 9 9 10 11 11 11 11 10 11
11 11 11 10 10 10 10 10 10 9 9 9 9 9 9 9 9 9 9 9 9 9 9 9 9 9 9 9 9 10 10 10 10 10 10 11 11 12 12 12 11 12 12
11 11 11 10 10 10 10 10 10 9 9 10 10 10 10 9 9 9 9 9 10 10 10 10 10 10 10 10 10 10 11 11 10 10 11 12 12 13 13 13 13 13 13
11 11 11 11 11 10 10 10 10 10 10 10 10 10 10 10 10 9 9 10 10 10 10 11 11 11 11 11 11 11 11 11 11 11 12 12 13 13 13 13 13 13 13

GEFSSE_500_meanwind_222.txt.gz
Wind_Speed
3 3 3 3 2 3 3 4 4 4 4 4 3 2 2 3 3 3 3 3 2 2 2 3 3 3 2 2 1 1 1 1 1 1 1 3 4 5 5 6 6 6 7
3 2 3 2 2 2 2 3 3 3 3 3 3 3 2 2 2 2 2 2 2 2 2 3 3 2 2 1 1 1 1 1 1 1 2 3 4 5 5 5 6 6 8
3 2 2 1 1 1 1 1 2 3 3 3 3 2 2 2 2 2 2 1 1 1 2 2 2 2 1 1 1 1 1 1 1 2 2 3 4 4 5 6 7 7 8
2 2 1 0 0 0 1 1 1 2 2 2 2 2 2 2 2 2 2 2 2 2 1 0 1 1 2 2 2 2 2 2 2 2 3 3 3 4 5 5 6 7 8
3 2 1 1 1 1 1 1 1 1 1 1 1 1 1 1 0 0 1 1 1 1 0 0 1 1 2 3 3 3 3 3 3 3 3 4 4 4 5 6 7 7 8
3 2 2 2 2 2 2 2 2 2 2 1 1 1 1 1 1 0 1 1 0 1 1 1 1 2 3 3 3 3 3 4 4 4 4 4 5 5 6 7 7 7 8
3 3 3 3 3 3 3 3 3 3 3 3 1 1 1 1 1 1 1 1 1 1 1 2 2 3 3 3 3 4 4 4 4 4 4 5 6 6 7 7 7 6 7
4 3 3 3 3 4 4 4 5 4 4 4 3 2 2 1 1 2 2 2 2 2 2 2 3 3 3 3 4 4 4 5 5 5 5 5 6 6 7 7 7 7 7
5 4 4 4 4 5 5 4 5 5 5 4 3 3 3 2 3 3 3 2 3 3 3 3 3 4 4 4 4 4 5 5 6 5 5 5 6 6 7 7 8 8 8
6 6 5 4 5 6 6 6 6 5 6 5 4 4 4 4 4 4 4 4 3 3 3 4 4 4 4 4 4 5 5 6 6 6 6 6 6 7 7 8 8 8 8
7 6 6 5 6 6 6 6 6 6 6 6 5 4 4 5 5 4 4 4 4 4 4 4 4 4 5 5 5 5 6 6 7 7 7 7 7 7 7 8 8 9 8
8 7 7 7 7 7 7 7 7 7 7 7 6 5 5 5 5 4 4 4 4 4 4 4 5 5 5 5 6 6 7 7 7 7 7 7 7 7 7 7 8 8 8
9 9 8 8 7 7 7 8 8 8 7 7 6 6 6 6 5 5 4 4 4 4 5 5 5 6 6 6 6 6 7 7 8 7 7 7 7 7 7 7 8 8 8
10 9 9 9 8 9 9 9 9 8 8 8 7 6 6 6 5 4 4 4 5 5 5 5 5 5 6 6 6 7 7 7 7 7 8 8 8 8 8 8 8 8 8
10 10 10 10 9 9 9 9 8 8 8 6 5 6 5 5 5 5 5 5 5 5 5 5 5 5 6 6 7 7 7 7 7 8 8 9 8 8 7 7 7 7 8
11 11 11 11 10 10 10 9 8 7 8 6 6 6 6 6 6 6 6 6 6 5 5 5 5 5 5 6 6 7 8 7 8 8 9 9 9 8 7 7 7 8 9
11 11 11 11 11 10 10 9 9 8 7 7 6 6 6 6 6 6 6 6 6 6 6 6 6 6 6 6 6 7 7 7 8 9 9 9 9 9 8 8 9 9 9
11 11 11 11 11 11 11 10 9 8 8 8 8 7 7 7 7 7 7 7 7 6 6 6 6 6 6 7 7 7 8 8 8 8 9 9 9 9 9 8 8 8 9
10 11 10 11 11 10 10 9 8 8 8 8 8 8 8 8 8 8 8 7 7 7 7 7 6 7 7 7 7 7 8 8 8 8 9 9 9 9 9 9 9 9 9
10 10 10 10 9 10 10 10 9 9 9 9 9 9 9 9 8 8 8 8 7 7 7 7 8 8 8 8 7 7 8 8 8 9 9 10 10 9 9 9 9 10 10
9 9 10 10 9 9 9 9 9 9 9 9 9 10 9 9 8 8 8 7 7 7 7 8 8 8 9 8 7 8 8 8 9 9 10 10 10 10 10 10 10 10 11
9 9 9 9 9 9 9 9 9 9 9 9 9 8 8 8 9 9 8 8 8 8 8 9 9 9 9 9 9 9 9 9 9 9 10 10 10 10 10 10 10 11 11
9 10 10 10 10 10 10 10 9 9 9 8 8 9 8 8 8 8 8 9 9 9 9 9 9 10 10 10 10 10 10 9 9 9 10 10 10 11 11 11 11 11 11
10 10 10 10 11 11 10 9 9 9 9 9 9 9 9 9 8 9 9 9 9 9 9 9 10 10 10 11 11 11 11 10 10 10 10 11 11 11 12 12 13 13 13
10 10 11 11 11 10 10 10 9 9 10 9 9 9 9 9 9 9 10 10 10 10 10 10 10 11 11 12 12 12 11 11 11 11 11 11 11 11 12 12 13 13 13
10 10 11 11 11 10 10 10 10 9 10 10 10 10 10 10 9 9 10 10 10 10 10 10 10 11 12 12 12 12 12 12 12 12 12 12 12 12 13 13 13 14 14

GEFSSE_500_meanwind_228.txt.gz
Wind_Speed
1 0 0 1 1 1 0 1 1 1 1 1 1 1 1 0 0 0 0 0 1 1 1 2 2 1 1 1 1 0 0 1 1 2 2 2 2 2 3 4 4 4 5
1 1 1 1 1 1 1 0 1 1 1 1 1 1 1 0 0 1 1 0 0 1 1 2 2 2 1 1 0 0 1 2 2 2 2 2 2 3 3 4 4 4 6
2 2 2 2 2 1 1 1 1 1 2 2 2 2 1 1 0 0 1 1 1 1 2 2 2 2 1 1 1 1 2 2 2 2 1 2 3 3 4 4 5 5 6
3 3 2 2 2 2 2 2 2 2 2 2 2 2 2 1 1 1 2 1 2 2 2 2 3 2 2 2 2 2 2 2 2 2 2 3 3 4 5 5 5 5 6
4 4 3 3 3 3 3 3 3 3 3 3 3 3 2 2 2 2 2 2 2 2 2 2 2 2 2 2 3 3 3 3 3 3 3 4 4 5 5 5 6 6 6
5 5 5 4 4 4 4 4 4 4 3 4 3 3 3 3 3 3 3 3 2 2 3 3 3 3 3 3 4 4 4 4 4 4 4 5 5 6 5 5 6 6 6
6 6 5 5 5 5 5 5 5 4 4 4 4 4 4 4 4 4 4 4 3 4 4 3 3 4 4 4 5 5 4 4 5 5 5 5 5 6 6 6 6 6 7
6 6 6 6 6 6 6 6 6 5 5 5 4 5 5 4 4 4 4 4 4 4 5 4 4 5 5 5 5 5 5 5 5 6 6 6 5 6 6 6 7 7 7
7 7 7 7 7 7 7 7 6 6 6 6 6 6 6 5 5 4 4 5 4 4 4 5 5 5 5 5 5 6 6 6 6 6 6 6 6 7 6 7 7 8 8
8 7 8 7 8 7 7 7 7 7 6 7 7 7 7 6 5 5 5 4 5 5 5 5 5 6 5 5 5 6 6 6 7 7 7 7 7 8 8 8 8 9 9
8 8 8 8 8 8 7 8 7 7 7 8 8 8 7 7 6 5 5 5 5 5 5 6 6 6 6 6 6 6 7 7 7 8 8 8 8 8 8 8 9 9 9
9 9 9 9 9 8 8 8 8 8 8 8 8 8 7 7 6 6 6 6 6 6 6 6 6 7 7 6 7 7 7 8 8 8 9 8 8 8 8 8 8 8 8
9 9 9 9 9 9 9 9 9 9 8 8 8 8 7 6 6 6 6 6 6 6 6 6 7 7 7 7 7 8 7 8 9 9 9 8 9 9 8 8 8 8 9
9 9 9 9 10 10 9 9 9 9 9 8 8 8 6 6 5 6 6 6 7 7 7 7 7 7 7 7 8 8 8 8 8 8 8 8 9 9 9 9 9 9 9
9 9 9 10 10 10 9 10 10 10 9 8 8 7 7 7 6 6 7 7 8 7 7 7 7 7 7 8 8 8 8 8 9 9 9 8 9 9 9 9 9 9 9
9 10 10 10 10 10 10 10 9 9 8 8 8 8 8 8 7 8 7 7 8 7 7 7 7 7 8 8 8 8 8 8 8 8 9 9 9 9 9 9 9 9 9
9 10 10 10 10 9 10 10 10 10 9 9 9 9 9 8 8 8 7 8 8 8 8 7 7 8 8 8 8 8 9 9 9 9 9 9 9 9 10 10 10 10 9
10 10 11 10 10 10 10 10 10 11 10 10 9 9 9 9 9 9 8 8 9 9 8 8 8 8 8 8 8 9 9 9 10 9 9 9 10 10 10 10 11 11 10
9 9 10 10 9 9 9 10 9 9 9 9 9 9 9 9 10 10 9 9 9 9 9 9 9 9 9 9 9 9 9 9 9 9 9 10 10 10 11 11 10 11 11
9 9 9 9 8 8 9 8 8 7 8 8 8 9 10 10 10 10 10 9 9 10 10 9 9 8 9 9 9 9 10 9 10 10 10 10 10 11 11 11 11 11 11
10 9 9 9 8 8 8 8 8 8 8 9 9 9 9 10 10 10 10 10 10 10 10 10 9 9 10 9 9 9 9 10 10 10 11 11 11 12 12 12 12 12 12
9 9 9 9 8 9 9 8 8 8 9 9 9 9 9 9 10 11 10 10 10 10 10 10 10 10 10 10 10 11 11 10 10 11 11 12 12 12 12 12 12 12 12
9 9 9 9 9 8 8 8 8 9 9 9 9 8 8 9 9 10 10 10 10 10 11 11 11 11 11 11 11 12 12 11 12 12 12 12 12 12 12 13 12 12 13
10 10 10 10 9 9 10 10 10 9 10 9 9 9 9 9 9 10 10 11 11 11 11 11 11 12 12 12 12 12 13 13 13 13 13 13 13 12 12 12 13 13 13
10 11 10 10 10 10 11 11 10 11 11 10 10 9 10 10 10 10 11 11 11 11 11 11 12 12 12 13 13 13 14 14 15 14 14 14 14 13 13 13 14 13 14
10 11 11 11 11 11 11 11 11 11 11 11 10 10 11 11 10 11 11 11 10 10 11 11 12 12 13 13 14 14 14 15 15 15 15 14 14 14 14 15 15 15 15

GEFSSE_500_meanwind_234.txt.gz
Wind_Speed
2 2 1 1 0 0 1 1 1 1 1 2 2 2 2 3 3 2 2 2 2 2 2 3 3 3 3 3 2 2 2 2 2 3 2 3 4 4 4 5 4 4 3
2 1 0 1 1 1 1 1 1 2 2 2 2 2 2 3 3 3 3 2 2 3 3 3 4 3 3 3 3 3 2 3 3 3 3 3 4 3 4 5 5 5 5
2 2 2 2 2 1 1 2 2 2 3 3 3 3 3 2 2 2 3 3 3 3 3 4 4 4 4 4 3 3 3 3 3 3 3 3 4 4 4 5 5 5 5
3 2 2 2 2 2 2 3 3 3 3 3 3 3 4 4 3 3 3 3 3 3 4 4 4 5 5 5 4 4 4 3 3 3 3 3 4 4 4 5 5 5 6
3 3 3 3 3 3 4 4 4 4 4 4 3 4 4 5 4 4 4 4 4 4 5 5 5 5 6 6 5 5 4 4 4 4 3 4 4 4 4 5 5 6 6
4 4 4 5 5 4 5 5 5 5 5 4 4 4 5 5 5 5 6 5 5 5 5 5 5 5 5 6 6 5 5 5 5 5 5 5 5 4 5 5 6 7 7
5 5 5 5 5 5 5 5 5 6 6 6 5 5 5 6 6 6 6 6 6 6 6 6 6 6 6 6 6 6 6 6 6 6 6 6 6 6 6 6 7 7 8
7 6 6 5 6 6 6 6 7 7 6 6 6 5 6 6 6 6 6 6 6 6 6 6 7 7 7 7 7 7 7 6 6 6 6 6 7 7 7 7 7 8 8
7 6 7 6 7 7 7 7 8 8 7 7 6 6 7 7 6 6 7 6 5 6 6 7 7 7 7 8 8 8 8 8 8 7 7 6 6 7 7 8 8 8 9
7 7 7 7 7 7 8 8 8 8 7 6 6 6 7 7 7 6 6 6 6 6 6 6 7 7 8 8 8 8 8 9 9 8 8 7 7 7 8 8 8 8 9
7 7 7 7 7 7 7 7 7 7 6 6 6 6 6 7 7 6 6 6 6 6 7 7 7 7 8 8 8 8 9 9 9 9 8 8 8 8 8 8 9 9 9
7 7 7 7 8 8 7 7 7 7 7 7 7 6 6 7 7 6 7 7 7 8 7 7 7 8 8 8 8 9 9 9 9 9 9 9 8 8 8 8 9 9 10
7 8 7 7 7 7 8 8 8 8 8 8 7 7 7 6 6 7 7 8 8 8 8 8 8 8 8 8 8 9 9 9 9 9 9 9 9 9 9 9 9 9 9
7 7 7 7 7 8 8 8 8 8 8 8 8 7 6 6 7 7 8 8 8 8 8 8 8 8 8 8 8 8 8 8 9 9 10 10 10 9 9 9 8 9 9
7 7 7 7 7 7 7 8 8 8 7 8 8 8 8 8 8 8 9 8 8 8 8 9 8 8 8 8 8 8 8 8 8 9 9 10 10 9 9 8 8 8 8
6 7 7 7 7 7 7 7 7 8 7 8 8 9 9 9 9 9 9 9 9 9 9 9 9 8 8 8 8 8 8 8 8 8 9 9 10 10 9 9 9 9 9
5 5 6 6 6 6 7 7 7 8 8 8 8 9 9 9 9 9 9 9 9 9 9 9 9 9 8 8 8 8 8 8 8 9 9 9 9 9 9 9 10 10 10
5 5 6 6 6 6 6 7 7 8 8 9 9 8 8 8 8 9 9 10 9 9 10 9 9 9 9 9 9 9 9 9 9 9 9 9 9 10 10 10 10 11 11
6 6 6 6 6 6 6 7 8 8 8 8 8 7 8 8 8 8 9 9 10 10 10 9 9 9 9 9 9 9 9 9 9 10 10 10 10 10 10 11 11 11 11
5 5 5 5 6 6 6 7 7 7 7 7 7 7 8 8 9 8 8 9 9 10 10 10 10 10 10 10 10 9 9 10 10 11 11 11 11 11 11 11 12 12 12
4 4 5 5 5 6 6 6 6 7 6 6 7 7 8 8 8 9 9 9 9 9 10 10 10 10 10 10 10 9 9 10 11 11 11 11 11 11 11 12 12 12 13
5 5 5 6 6 6 6 6 6 7 7 7 7 8 8 8 8 8 9 9 10 10 10 10 10 10 10 10 10 10 10 11 11 11 11 12 12 12 12 12 12 12 13
6 6 6 6 7 7 7 7 7 7 8 7 8 8 8 8 9 9 9 10 10 10 10 10 10 10 10 10 10 11 11 12 11 12 12 12 13 13 13 13 13 13 13
6 6 6 6 7 7 7 7 7 7 7 7 8 8 9 9 9 9 9 9 9 9 10 10 11 11 11 11 11 11 12 12 12 12 12 13 13 13 13 14 14 14 14
7 7 7 7 7 7 7 7 7 7 7 7 8 8 9 9 9 9 9 9 9 9 10 10 11 11 11 12 12 12 12 13 13 13 13 13 13 14 14 14 15 15 15
7 7 7 7 7 8 8 8 8 8 8 8 9 9 9 9 10 10 10 10 10 10 10 11 11 11 11 12 12 12 13 14 14 14 13 14 14 15 15 15 15 15 15

GEFSSE_500_meanwind_240.txt.gz
Wind_Speed
1 1 2 1 1 1 2 2 2 2 2 2 2 2 2 3 3 3 3 3 3 2 2 2 2 2 2 2 2 2 2 2 3 3 3 4 4 4 5 5 5 5 5
1 2 2 2 2 2 2 2 2 2 2 3 3 3 3 3 3 3 3 3 2 2 2 2 2 3 2 3 3 3 3 3 3 3 4 4 5 5 5 5 6 6 6
2 2 3 3 3 2 2 2 3 3 3 3 3 3 4 3 3 4 4 3 3 3 3 3 3 3 3 3 4 4 4 4 4 4 4 4 5 5 5 6 6 6 6
3 3 3 3 3 3 3 3 3 4 4 4 4 4 4 4 4 5 5 4 4 3 3 4 3 3 3 4 4 5 5 5 5 4 4 5 5 5 5 6 7 6 7
4 4 4 4 4 4 4 4 4 4 5 5 5 5 5 5 5 5 5 5 4 4 4 4 4 4 4 5 5 5 5 5 5 5 5 5 5 5 6 6 6 6 7
5 5 5 5 5 5 6 5 5 5 5 6 6 6 6 7 6 6 6 5 5 5 5 5 5 5 5 5 5 5 6 6 6 5 5 6 6 6 6 6 6 7 7
6 5 5 5 6 6 6 6 6 6 6 6 6 6 7 6 6 7 7 6 6 5 5 5 6 5 5 5 5 6 6 6 6 6 6 6 7 7 7 7 7 8 8
6 6 6 5 6 6 7 7 7 7 6 6 7 7 6 6 6 7 7 6 6 6 6 6 6 6 6 6 7 7 7 7 7 7 7 6 7 7 7 7 8 8 8
6 6 6 6 6 7 6 6 7 6 6 7 7 7 6 7 7 7 7 7 6 7 7 7 7 7 7 7 8 8 8 8 8 7 7 7 7 8 8 8 8 8 9
7 6 6 6 6 6 6 6 7 7 7 7 6 7 7 7 7 8 7 7 7 7 7 7 7 7 8 8 9 9 9 9 8 8 8 8 8 8 8 9 9 9 9
7 7 6 6 6 6 6 6 6 7 7 7 6 7 7 7 7 7 7 7 7 7 7 7 7 8 8 9 9 9 9 9 9 9 9 8 9 9 9 9 10 9 10
6 6 6 6 7 7 6 6 5 6 6 6 7 7 6 6 6 6 7 7 7 7 7 7 8 8 8 8 9 9 9 10 10 9 9 9 9 9 10 10 10 10 10
7 7 7 6 7 7 6 5 5 5 6 6 7 6 6 6 6 6 7 7 8 8 8 8 8 8 8 8 9 9 10 10 10 10 10 10 10 10 9 9 9 10 10
6 7 7 7 7 7 7 6 6 6 6 6 7 6 6 7 7 7 8 8 8 8 8 9 9 9 9 9 10 10 10 10 10 10 10 11 11 10 10 9 9 9 10
6 7 7 7 7 7 7 7 7 7 7 7 7 7 7 8 9 9 9 8 8 8 9 10 10 10 10 10 10 10 10 9 10 10 11 11 11 10 10 10 9 9 9
6 7 7 7 7 8 8 8 8 7 7 7 7 8 8 9 9 10 9 8 9 9 10 10 10 10 10 10 10 10 10 10 10 10 10 10 11 11 10 10 10 10 10
6 6 6 7 7 7 7 7 7 7 7 7 8 8 8 9 9 10 9 9 9 10 10 10 10 10 10 10 10 10 10 10 10 10 10 10 10 10 10 11 11 10 10
5 5 6 7 6 7 7 7 7 7 7 7 7 8 8 8 9 9 9 10 10 10 10 10 10 10 10 11 10 10 10 11 11 11 11 11 11 11 11 11 11 11 11
4 5 5 6 6 6 6 6 7 7 7 7 7 7 7 7 8 8 9 9 10 11 11 11 10 10 11 11 10 10 11 11 11 11 11 12 12 12 12 12 12 12 12
4 4 4 5 5 6 5 6 6 7 7 7 7 7 7 7 7 8 8 9 9 11 11 11 10 10 10 10 11 10 10 11 11 11 12 12 12 12 12 13 13 13 13
4 4 4 4 5 5 6 6 6 7 7 7 7 7 7 8 8 9 9 10 10 11 11 11 10 10 10 11 11 11 11 11 12 12 12 12 12 13 13 13 14 14 14
4 5 5 5 5 5 5 5 6 6 7 7 6 7 7 8 9 9 9 9 9 9 9 10 10 11 11 12 12 11 11 12 12 12 12 13 13 13 14 14 15 14 15
5 5 5 5 6 6 6 6 6 6 7 7 8 9 9 9 9 9 9 9 9 9 9 9 10 11 11 11 12 12 12 12 12 12 12 13 13 14 14 14 15 15 15
6 6 6 6 7 7 7 7 7 7 7 8 8 9 9 9 10 10 10 9 10 10 10 10 10 10 11 11 11 12 12 12 13 13 14 14 14 14 15 15 15 15 15
7 7 7 7 7 7 7 7 7 8 8 8 9 9 9 10 10 10 10 10 10 11 11 10 11 11 11 11 11 12 12 13 13 14 14 14 15 15 16 16 16 16 16
7 7 8 8 8 8 8 8 9 9 9 9 9 9 9 10 10 10 10 11 11 12 12 11 12 12 12 12 12 13 14 14 14 15 15 15 15 16 16 16 16 16 16